Location: Unspecified
(0.0000°N, 0.0000°E)
Time: 05:48:47
(UTC+00:00)

Safir 2 - Pass Details

Date: 18 May 2026
Orbit: 804 x 808 km, 99.0° (Epoch: 11 June)

Event Time Altitude Azimuth Distance (km) Brightness Sun altitude
Rises 04:40:00 0° 6° (N) 3,301 11.7 -18.0°
Reaches altitude 10° 04:42:21 10° 3° (N) 2,373 10.8 -17.4°
Maximum altitude 04:47:32 63° 283° (WNW) 890 8.1 -16.2°
Drops below altitude 10° 04:52:44 10° 202° (SSW) 2,382 10.2 -15.0°
Enters shadow 04:52:56 - 202° (SSW) 2,462 10.2 -14.9°
